Bookmark and Share
Track history (hours):
 

F/V Cote D'ambre

Last reported at 2014-Apr-20 04:28 UTC. Time now 2014-Apr-20 11:46 UTC.
Position N 47°27' W 003°26'.

Length 16 m; draft 4 m.

Type: Fishing. MMSI: 227128800.

NotesDate/timePositionNaut miles runAvg speedWind from/ knotsBaromVisibWave heightAir tempDewpointWater temp
2014-Apr-20 04:28N 47°27' W 003°26'7 8.0
2014-Apr-20 03:33N 47°34' W 003°22'8 8.2
2014-Apr-20 02:34N 47°42' W 003°22'3 1.4
2014-Apr-20 00:34N 47°39' W 003°22'8 7.7
2014-Apr-19 23:34N 47°32' W 003°25'5 0.3
2014-Apr-19 04:20N 47°27' W 003°25'6 7.7
2014-Apr-19 03:33N 47°33' W 003°23'8 8.0
2014-Apr-19 02:33N 47°41' W 003°22'1 0.3
2014-Apr-18 22:33N 47°41' W 003°24'7 6.3
2014-Apr-18 21:24N 47°37' W 003°33'5 5.9
2014-Apr-18 20:33N 47°32' W 003°36'3 2.2
2014-Apr-18 19:05N 47°30' W 003°33'2 3.7
2014-Apr-18 18:33N 47°28' W 003°35'2 0.1
2014-Apr-17 19:20N 47°27' W 003°34'2 3.0
2014-Apr-17 18:33N 47°28' W 003°32'3 3.4
2014-Apr-17 17:31N 47°31' W 003°28'1 0.9
2014-Apr-17 16:33N 47°31' W 003°27'7 6.8
2014-Apr-17 15:33N 47°37' W 003°22'6 0.3
2014-Apr-16 19:18N 47°43' W 003°22'6 7.8
2014-Apr-16 18:34N 47°38' W 003°20'3 2.9
2014-Apr-16 17:34N 47°36' W 003°16'6 6.3
2014-Apr-16 16:33N 47°41' W 003°22'  

Dump ship's entire track history

sailing weather and tide predictions

F/V Cote D'ambre — FPEY — position and weather